Weather History for Watonga, OK

Change the Weather History Date:

Saturday, January 19, 2013

  Actual Average Record
Temperature  
Mean Temperature 50 °F -  
Max Temperature 65 °F 46 °F 68 °F (1986)
Min Temperature 34 °F 23 °F -9 °F (1984)
Degree Days  
Heating Degree Days 15    
Moisture  
Dew Point 34 °F    
Average Humidity 62    
Maximum Humidity 88    
Minimum Humidity 32    
Precipitation  
Precipitation 0.00 in - - ()
Sea Level Pressure  
Sea Level Pressure 30.14 in    
Wind  
Wind Speed 8 mph (WSW)    
Max Wind Speed 15 mph    
Max Gust Speed 21 mph    
Visibility 10 miles    
Events      
Averages and records for this station are not official NWS values.
T = Trace of Precipitation, MM = Missing Value Source: NWS Daily Summary

Daily Weather History Graph

Daily Weather History Graph

Search for Another Location

Airport:

Trip Planner

Search our weather history database for the weather conditions in past years. The results will help you decide how hot, cold, wet, or windy it might be!

Date:

Astronomy

Jan. 19, 2013 Rise Set
Actual Time 7:41 AM CST 5:47 PM CST
Civil Twilight 7:14 AM CST 6:15 PM CST
Nautical Twilight 6:42 AM CST 6:46 PM CST
Astronomical Twilight 6:12 AM CST 7:17 PM CST
Moon 12:12 PM CST (1/19) 1:20 AM CST (1/19)
Length of Visible Light 11h 01m
Length of Day
10h 05m
First Quarter, 57% of the Moon is Illuminated
Jan 19
First Quarter
Jan 26
Full
Feb 3
Last Quarter
Feb 10
New
Feb 17
First Quarter

Hourly Weather History & Observations

Time (CST) Temp. Windchill Dew Point Humidity Pressure Visibility Wind Dir Wind Speed Gust Speed Precip Events Conditions
12:15 AM 46.0 °F 41.0 °F 34.7 °F 65% 30.13 in 10.0 mi South 10.4 mph - N/A   Clear
12:35 AM 45.3 °F 40.1 °F 34.7 °F 66% 30.13 in 10.0 mi South 10.4 mph - N/A   Clear
12:55 AM 43.7 °F 40.3 °F 34.2 °F 69% 30.13 in 10.0 mi SSE 5.8 mph - N/A   Clear
1:15 AM 42.8 °F 38.6 °F 34.0 °F 71% 30.13 in 10.0 mi South 6.9 mph - N/A   Clear
1:35 AM 43.0 °F 38.8 °F 34.2 °F 71% 30.13 in 10.0 mi South 6.9 mph - N/A   Clear
1:55 AM 43.5 °F 38.9 °F 34.0 °F 69% 30.13 in 10.0 mi South 8.1 mph - N/A   Clear
2:15 AM 42.8 °F 37.5 °F 33.8 °F 70% 30.12 in 10.0 mi South 9.2 mph - N/A   Clear
2:35 AM 42.1 °F 36.6 °F 33.8 °F 72% 30.12 in 10.0 mi South 9.2 mph - N/A   Clear
2:55 AM 41.2 °F 35.0 °F 33.6 °F 74% 30.11 in 10.0 mi South 10.4 mph - N/A   Clear
3:15 AM 41.9 °F 36.3 °F 33.6 °F 72% 30.10 in 10.0 mi SSW 9.2 mph - N/A   Clear
3:35 AM 42.8 °F 36.6 °F 33.8 °F 70% 30.10 in 10.0 mi SSW 11.5 mph - N/A   Clear
3:55 AM 43.7 °F 37.7 °F 34.0 °F 69% 30.09 in 10.0 mi SSW 11.5 mph 17.3 mph N/A   Clear
4:15 AM 43.7 °F 36.6 °F 34.0 °F 69% 30.09 in 10.0 mi SSW 15.0 mph 20.7 mph N/A   Clear
4:35 AM 43.3 °F 36.5 °F 34.0 °F 70% 30.09 in 10.0 mi SSW 13.8 mph - N/A   Clear
4:55 AM 42.4 °F 36.1 °F 33.8 °F 71% 30.08 in 10.0 mi SSW 11.5 mph 17.3 mph N/A   Clear
5:15 AM 41.9 °F 35.4 °F 33.8 °F 73% 30.08 in 10.0 mi SSW 11.5 mph - N/A   Clear
5:35 AM 40.1 °F 33.2 °F 33.8 °F 78% 30.09 in 10.0 mi SW 11.5 mph - N/A   Clear
5:55 AM 39.4 °F 32.3 °F 33.4 °F 79% 30.09 in 10.0 mi SSW 11.5 mph - N/A   Clear
7:15 AM 36.0 °F 29.6 °F 32.5 °F 87% 30.09 in 10.0 mi SW 8.1 mph - N/A   Clear
7:35 AM 36.1 °F 30.6 °F 32.9 °F 88% 30.09 in 10.0 mi SSW 6.9 mph - N/A   Clear
8:15 AM 35.4 °F - 32.2 °F 88% 30.10 in 10.0 mi Calm Calm - N/A   Clear
8:35 AM 36.7 °F - 32.7 °F 86% 30.11 in 10.0 mi Calm Calm - N/A   Clear
8:55 AM 38.1 °F 34.6 °F 34.0 °F 85% 30.11 in 10.0 mi SW 4.6 mph - N/A   Clear
9:55 AM 44.8 °F 38.7 °F 35.8 °F 71% 30.14 in 10.0 mi SW 12.7 mph - N/A   Clear
10:15 AM 46.0 °F 41.0 °F 35.6 °F 67% 30.15 in 10.0 mi WSW 10.4 mph - N/A   Clear
10:35 AM 47.5 °F - 36.0 °F 64% 30.15 in 10.0 mi SW 10.4 mph - N/A   Clear
11:15 AM 50.2 °F - 36.1 °F 59% 30.15 in 10.0 mi WSW 9.2 mph - N/A   Clear
11:35 AM 51.8 °F - 36.5 °F 56% 30.14 in 10.0 mi SW 8.1 mph - N/A   Clear
11:55 AM 53.2 °F - 37.2 °F 55% 30.13 in 10.0 mi SSW 6.9 mph - N/A   Clear
12:15 PM 55.8 °F - 37.4 °F 50% 30.14 in 10.0 mi NW 10.4 mph - N/A   Clear
12:35 PM 57.6 °F - 36.3 °F 45% 30.13 in 10.0 mi NW 8.1 mph - N/A   Clear
1:15 PM 59.5 °F - 36.1 °F 42% 30.11 in 10.0 mi WNW 3.5 mph - N/A   Clear
1:35 PM 61.0 °F - 36.3 °F 40% 30.10 in 10.0 mi Calm Calm - N/A   Clear
1:55 PM 62.2 °F - 36.0 °F 38% 30.09 in 10.0 mi SSW 3.5 mph - N/A   Clear
2:15 PM 63.0 °F - 36.1 °F 37% 30.09 in 10.0 mi SW 3.5 mph - N/A   Clear
2:35 PM 63.9 °F - 36.9 °F 37% 30.09 in 10.0 mi Calm Calm - N/A   Clear
2:55 PM 64.4 °F - 36.0 °F 35% 30.10 in 10.0 mi WNW 4.6 mph - N/A   Clear
3:15 PM 65.1 °F - 36.5 °F 35% 30.10 in 10.0 mi NW 3.5 mph - N/A   Clear
3:35 PM 65.3 °F - 35.8 °F 34% 30.11 in 10.0 mi NNW 5.8 mph - N/A   Clear
3:55 PM 65.3 °F - 35.8 °F 34% 30.11 in 10.0 mi Calm Calm - N/A   Clear
4:15 PM 65.3 °F - 35.6 °F 33% 30.12 in 10.0 mi WNW 3.5 mph - N/A   Clear
4:35 PM 65.3 °F - 35.8 °F 34% 30.12 in 10.0 mi North 8.1 mph - N/A   Clear
4:55 PM 63.9 °F - 33.3 °F 32% 30.13 in 10.0 mi North 9.2 mph - N/A   Clear
5:15 PM 61.7 °F - 32.7 °F 34% 30.14 in 10.0 mi North 10.4 mph - N/A   Clear
5:35 PM 58.5 °F - 32.9 °F 38% 30.15 in 10.0 mi North 8.1 mph - N/A   Clear
6:15 PM 50.0 °F - 30.9 °F 48% 30.16 in 10.0 mi North 6.9 mph - N/A   Clear
6:35 PM 46.6 °F - 31.6 °F 56% 30.17 in 10.0 mi North 8.1 mph - N/A   Clear
6:55 PM 46.2 °F 42.7 °F 32.0 °F 58% 30.18 in 10.0 mi North 6.9 mph - N/A   Clear
7:15 PM 46.4 °F 43.5 °F 32.0 °F 57% 30.18 in 10.0 mi North 5.8 mph - N/A   Clear
7:35 PM 44.8 °F 41.6 °F 31.6 °F 60% 30.19 in 10.0 mi North 5.8 mph - N/A   Clear
7:55 PM 41.7 °F 38.8 °F 31.1 °F 66% 30.20 in 10.0 mi NNW 4.6 mph - N/A   Clear
8:15 PM 40.1 °F 38.0 °F 31.3 °F 71% 30.21 in 10.0 mi WNW 3.5 mph - N/A   Clear
8:35 PM 41.4 °F 38.4 °F 30.4 °F 65% 30.21 in 10.0 mi NNW 4.6 mph - N/A   Clear
8:55 PM 39.7 °F 36.5 °F 30.7 °F 70% 30.21 in 10.0 mi NNW 4.6 mph - N/A   Clear
9:15 PM 39.9 °F - 31.5 °F 72% 30.22 in 10.0 mi Calm Calm - N/A   Clear
9:35 PM 39.7 °F 37.6 °F 31.1 °F 71% 30.22 in 10.0 mi WNW 3.5 mph - N/A   Clear
9:55 PM 37.4 °F - 30.7 °F 77% 30.22 in 10.0 mi Calm Calm - N/A   Clear
10:15 PM 38.1 °F 35.7 °F 30.7 °F 75% 30.23 in 10.0 mi West 3.5 mph - N/A   Clear
10:35 PM 38.1 °F - 30.6 °F 74% 30.23 in 10.0 mi Calm Calm - N/A   Clear
10:55 PM 36.9 °F - 30.6 °F 78% 30.23 in 10.0 mi Calm Calm - N/A   Clear
11:15 PM 35.6 °F - 30.6 °F 82% 30.23 in 10.0 mi Calm Calm - N/A   Clear
11:35 PM 34.7 °F 30.6 °F 29.7 °F 82% 30.24 in 10.0 mi NW 4.6 mph - N/A   Clear